User: anonymous   Login
Location: Unspecified
(0.0000°N, 0.0000°E)
Time: 09:51:35
(UTC+00:00)
Language:

MAROC-TUBSAT - Orbit

View from above orbital plane
View from above orbital plane
View from above satellite
View from above satellite

Ground track
Ground track

The orbit data is extracted from the following two-line orbital elements,

1 27004U 01056D   18264.89696920 -.00000036 +00000-0 +84271-5 0  9992
2 27004 099.4261 038.5555 0019344 216.4112 303.9248 13.70130964839277
Epoch (UTC): 21 September 2018 21:31:38
Eccentricity: 0.0019344
inclination: 99.4261°
perigee height: 985 km
apogee height: 1013 km
right ascension of ascending node: 38.5555°
argument of perigee: 216.4112°
revolutions per day: 13.70130964
mean anomaly at epoch: 303.9248°
orbit number at epoch: 83927

The dashed part of the orbit path shows where the satellite is in the earth's shadow,  

DLR